Cut Bank, MT

9:53 PM MDT on May 27, 2017 (GMT -0600)
Cut Bank Municipal

Weather History for KCTB - June, 2013

Change the Weather History Date:

Monday, June 17, 2013

  Actual Average Record
Temperature  
Mean Temperature 60 °F 58 °F  
Max Temperature 77 °F 71 °F 96 °F (1961)
Min Temperature 43 °F 45 °F 35 °F (1949)
Degree Days  
Heating Degree Days 5 7  
Month to date heating degree days 155 154  
Since 1 June heating degree days 155 154  
Since 1 July heating degree days 8187 8442  
Cooling Degree Days 0 1  
Month to date cooling degree days 0 1  
Year to date cooling degree days 2 3  
Since 1 June cooling degree days 0 1  
Growing Degree Days 10 (Base 50)    
Moisture  
Dew Point 47 °F    
Average Humidity 63    
Maximum Humidity 92    
Minimum Humidity 33    
Precipitation  
Precipitation 0.00 in 0.09 in 1.23 in (2014)
Month to date precipitation 1.03 1.61  
Year to date precipitation 5.62 5.25  
Snow  
Snow 0.00 in - - ()
Snow Depth 0.00 in    
Sea Level Pressure  
Sea Level Pressure 30.02 in    
Wind  
Wind Speed 10 mph (SE)    
Max Wind Speed 22 mph    
Max Gust Speed 29 mph    
Visibility 10 miles    
Events      
T = Trace of Precipitation, MM = Missing Value Source: NWS Daily Summary

Daily Weather History Graph

Daily Weather History Graph

Search for Another Location

Airport or City:

Trip Planner

Search our weather history database for the weather conditions in past years. The results will help you decide how hot, cold, wet, or windy it might be!

Date:

Astronomy

Jun. 17, 2013 Rise Set
Actual Time 5:26 AM MDT 9:34 PM MDT
Civil Twilight 4:44 AM MDT 10:16 PM MDT
Nautical Twilight 3:44 AM MDT 11:16 PM MDT
Astronomical Twilight 1:34 AM MDT 12:58 AM MDT
Moon 2:52 PM MDT (6/17) 1:32 AM MDT (6/17)
Length of Visible Light 17h 32m
Length of Day
16h 08m
First Quarter, 61% of the Moon is Illuminated
Jun 17
First Quarter
Jun 23
Full
Jun 29
Last Quarter
Jul 8
New
Jul 15
First Quarter

Hourly Weather History & Observations

Time (MDT) Temp. Windchill Dew Point Humidity Pressure Visibility Wind Dir Wind Speed Gust Speed Precip Events Conditions
12:56 AM 52.0 °F - 46.0 °F 80% 30.14 in 10.0 mi SSW 3.5 mph - N/A   Overcast
1:56 AM 52.0 °F - 46.0 °F 80% 30.13 in 10.0 mi NE 3.5 mph - N/A   Mostly Cloudy
2:56 AM 51.1 °F - 46.0 °F 83% 30.12 in 10.0 mi Calm Calm - N/A   Clear
3:56 AM 48.0 °F - 44.1 °F 86% 30.13 in 10.0 mi West 5.8 mph - N/A   Clear
4:56 AM 44.1 °F 40.8 °F 42.1 °F 93% 30.12 in 10.0 mi NNE 5.8 mph - N/A   Clear
5:56 AM 44.1 °F 42.5 °F 42.1 °F 93% 30.12 in 10.0 mi WSW 3.5 mph - N/A   Clear
6:56 AM 48.0 °F - 45.0 °F 89% 30.11 in 10.0 mi NNE 3.5 mph - N/A   Clear
7:56 AM 54.0 °F - 48.0 °F 80% 30.10 in 10.0 mi Calm Calm - N/A   Clear
8:56 AM 59.0 °F - 48.0 °F 67% 30.09 in 10.0 mi SSE 10.4 mph - N/A   Clear
9:56 AM 62.1 °F - 48.0 °F 60% 30.08 in 10.0 mi SSE 11.5 mph - N/A   Clear
10:56 AM 66.9 °F - 46.0 °F 47% 30.05 in 10.0 mi SE 16.1 mph 21.9 mph N/A   Clear
11:56 AM 70.0 °F - 45.0 °F 41% 30.03 in 10.0 mi SSE 15.0 mph 24.2 mph N/A   Clear
12:56 PM 72.0 °F - 46.0 °F 40% 30.01 in 10.0 mi SE 16.1 mph 26.5 mph N/A   Clear
1:56 PM 73.9 °F - 44.1 °F 34% 29.99 in 10.0 mi SE 19.6 mph 27.6 mph N/A   Clear
2:56 PM 75.9 °F - 45.0 °F 33% 29.97 in 10.0 mi SSE 13.8 mph 23.0 mph N/A   Clear
3:56 PM 75.9 °F - 46.0 °F 35% 29.96 in 10.0 mi SE 18.4 mph 26.5 mph N/A   Partly Cloudy
4:56 PM 77.0 °F - 46.9 °F 34% 29.94 in 10.0 mi SE 15.0 mph 23.0 mph N/A   Clear
5:56 PM 73.9 °F - 46.9 °F 38% 29.93 in 10.0 mi ESE 12.7 mph - N/A   Clear
6:56 PM 73.9 °F - 48.0 °F 40% 29.92 in 10.0 mi SE 16.1 mph - N/A   Partly Cloudy
7:56 PM 73.9 °F - 51.1 °F 45% 29.89 in 10.0 mi ESE 15.0 mph - N/A   Clear
8:56 PM 69.1 °F - 52.0 °F 54% 29.90 in 10.0 mi ESE 6.9 mph - N/A   Clear
9:56 PM 64.9 °F - 51.1 °F 61% 29.90 in 10.0 mi East 8.1 mph - N/A   Clear
10:56 PM 61.0 °F - 50.0 °F 67% 29.91 in 10.0 mi ESE 6.9 mph - N/A   Clear
11:56 PM 62.1 °F - 50.0 °F 65% 29.89 in 10.0 mi Calm Calm - N/A   Clear